This demonstration page uses our WeatherBlox Daily Observations layout. Learn more.

Left ArrowRight Arrow

31.84235, -102.49876

Hourly Observations for August 2, 2015

Temp ( °F °C ) Dew Point ( °F °C ) Humidity (%) Winds ( mph kmh ) Pressure ( in mb ) Visibility ( mi km ) Precip ( " mm )
12:53 am 00:53 Mostly Cloudy 82 27.8 61 16.1 49 49 SSE 3 6 29.91 1013 10 16 0.00 0.00
1:53 am 01:53 Clear 81 27.2 60 15.6 49 49 Calm 29.89 1012 10 16 0.00 0.00
2:53 am 02:53 Clear 77 25 61 16.1 58 58 NE 6 9 29.88 1012 10 16 0.00 0.00
3:53 am 03:53 Clear 75 23.9 61 16.1 62 62 NE 5 7 29.87 1012 10 16 0.00 0.00
4:53 am 04:53 Clear 74 23.3 61 16.1 64 64 ENE 6 9 29.86 1011 10 16 0.00 0.00
5:53 am 05:53 Clear 75 23.9 61 16.1 62 62 SE 5 7 29.86 1011 10 16 0.00 0.00
6:53 am 06:53 Clear 75 23.9 61 16.1 62 62 SSE 6 9 29.86 1011 10 16 0.00 0.00
7:53 am 07:53 Sunny 76 24.4 61 16.1 60 60 S 10 17 29.87 1012 8 13 0.00 0.00
8:53 am 08:53 Sunny 80 26.7 61 16.1 52 52 S 10 17 29.88 1012 10 16 0.00 0.00
9:53 am 09:53 Mostly Sunny 84 28.9 59 15 43 43 SSW 14 22 29.88 1012 10 16 0.00 0.00
10:53 am 10:53 Sunny 87 30.6 59 15 39 39 SW 14 22 29.88 1012 10 16 0.00 0.00
11:53 am 11:53 Sunny 91 32.8 58 14.4 33 33 S 12 19 29.87 1011 10 16 0.00 0.00
12:53 pm 12:53 Sunny 94 34.4 56 13.3 28 28 undefined N/A 29.85 1011 10 16 0.00 0.00
1:53 pm 13:53 Sunny 97 36.1 54 12.2 24 24 S 13 20 29.83 1010 10 16 0.00 0.00
2:53 pm 14:53 Mostly Sunny 98 36.7 54 12.2 23 23 SW 9 15 29.81 1009 10 16 0.00 0.00
3:53 pm 15:53 Sunny 100 37.8 52 11.1 20 20 S 12 19 29.78 1009 10 16 0.00 0.00
4:53 pm 16:53 Mostly Sunny 99 37.2 52 11.1 21 21 SSE 16 26 29.76 1008 10 16 0.00 0.00
5:53 pm 17:53 Sunny 100 37.8 52 11.1 20 20 SSW 12 19 29.74 1007 10 16 0.00 0.00
6:53 pm 18:53 Sunny 98 36.7 52 11.1 21 21 S 15 24 29.74 1007 10 16 0.00 0.00
7:53 pm 19:53 Mostly Cloudy 96 35.6 52 11.1 23 23 SSE 12 19 29.74 1007 10 16 0.00 0.00
8:23 pm 20:23 Cloudy 88 31.1 58 14.4 36 36 E 9 15 29.68 1005 10 16 0.00 0.00
8:53 pm 20:53 Cloudy 88 31.1 59 15 38 38 ENE 16 26 29.77 1008 10 16 0.00 0.00
9:53 pm 21:53 Clear 85 29.4 59 15 42 42 E 13 20 29.80 1009 10 16 0.00 0.00
10:53 pm 22:53 Mostly Cloudy with Nearby Thunderstorms 84 28.9 60 15.6 44 44 N 8 13 29.84 1011 10 16 0.00 0.00
11:35 pm 23:35 Mostly Cloudy 83 28.3 59 15 44 44 N 6 9 29.80 1009 10 16 0.00 0.00
11:53 pm 23:53 Mostly Clear 83 28.3 59 15 44 44 NNE 3 6 29.83 1010 10 16 0.00 0.00

Powered by AerisWeather